Regional Weather Roundup
Issued by NWS

Home | Current Version | Previous Version | Graphics & Text | Print | Product List | Glossary On
Versions: 1 2 3 4 5 6 7 8 9 10 11 12 13 14 15 16 17 18 19 20 21 22 23 24 25 26 27 28 29 30 31 32 33 34 35 36 37 38 39 40 41 42 43 44 45 46 47 48 49 50
000
ASUS43 KFSD 010210
RWRSD

WEATHER ROUNDUP FOR SOUTH DAKOTA
NATIONAL WEATHER SERVICE SIOUX FALLS SD
800 PM CST SAT JAN 31 2015

NOTE: "FAIR" INDICATES FEW OR NO CLOUDS BELOW 12,000 FEET WITH NO
SIGNIFICANT WEATHER AND/OR OBSTRUCTIONS TO VISIBILITY.


SDZ001>005-009-010-012>017-010300-
NORTHWEST AND NORTH CENTRAL SOUTH DAKOTA

CITY           SKY/WX    TMP DP  RH WIND       PRES   REMARKS
BUFFALO          N/A     13   9  84 NE20G26   30.07R WCI  -5
FAITH            N/A     13   7  77 NE16      30.14R WCI  -3
MOBRIDGE       CLOUDY    12  -1  56 NE16      30.21R WCI  -5
$$

SDZ012>016-024>037-041>051-057-063-072>074-010300-
SOUTHWEST AND SOUTH CENTRAL SOUTH DAKOTA

CITY           SKY/WX    TMP DP  RH WIND       PRES   REMARKS
RAPID CTY ARPT FOG       19  18  95 NE10      30.06R VSB<1/4 WCI   7
PIERRE         CLOUDY    16   4  59 NE18      30.15R WCI   0
CUSTER         CLOUDY    20  17  88 CALM      29.88R
ELLSWORTH AFB  FRZ DRZL  18  16  93 NE7       30.06  VSB 1/2 WCI   8
PHILIP         CLOUDY    15  10  80 NE13      30.13R WCI   1
PINE RIDGE     FLURRIES  20  16  84 NE9       30.01R WCI   9
WINNER         LGT SNOW  20  16  84 N15       30.07R VSB 1   WCI   6
$$

SDZ004>011-016>023-039-040-010300-
NORTHEAST SOUTH DAKOTA

CITY           SKY/WX    TMP DP  RH WIND       PRES   REMARKS
ABERDEEN       CLOUDY     9  -2  61 NE21G28   30.26R WCI -11
WATERTOWN      CLOUDY    14   4  64 NE22G28   30.13R WCI  -4
SISSETON         N/A     10   0  63 N21       30.26R WCI  -9
$$

SDZ017-020-022-023-036>040-048>070-010300-
SOUTHEAST SOUTH DAKOTA

CITY           SKY/WX    TMP DP  RH WIND       PRES   REMARKS
SIOUX FALLS    LGT SNOW  25  22  88 NE18G29   30.05S FOG     WCI  11
HURON          CLOUDY    19  11  70 NE17G24   30.15S WCI   4
CHAMBERLAIN    MIX PCPN  19  17  94 NE15G22   30.09F WCI   5
MITCHELL       FRZ RAIN  24  22  91 NE16      30.10S FOG     WCI  11
YANKTON        CLOUDY    27  25  93 NE15G21   30.02S WCI  15
$$

ABBREVIATIONS USED IN REMARKS
   TC - TEMPERATURE IN CELSIUS
  WCI - WIND CHILL INDEX
   HX - HEAT INDEX
  VSB - VISIBILITY



USA.gov is the U.S. government's official web portal to all federal, state and local government web resources and services.